* Astronomy

Members Login
Post Info TOPIC: Asteroid 2010 EK139


L

Posts: 131287
Date:
Kuiper Belt Object 471143 (2010 EK139)
Permalink  
 


Kuiper Belt Object 471143 (2010 EK139) is at Opposition (35.418 AU) on the 2nd May 2018



__________________


L

Posts: 131287
Date:
KBO 2010 EK139
Permalink  
 


Kuiper Belt Object 2010 EK139 is at Opposition (36.479 AU) in the constellation Centaurus on the 26th April 2015

Ephemeris

Date    TT    R. A. (2000) Decl.     Delta      r     Elong.  Phase     Mag
2014 04 25    13 28 25.6 -34 21 18  36.8470 37.7734   156.8     0.6    19.6
2014 04 26    13 28 19.6 -34 20 52  36.8461 37.7724   156.7     0.6    19.6
2014 04 27    13 28 13.6 -34 20 25  36.8455 37.7714   156.6     0.6    19.6
2014 04 28    13 28 07.6 -34 19 57  36.8451 37.7703   156.5     0.6    19.6
2014 04 29    13 28 01.7 -34 19 29  36.8450 37.7693   156.3     0.6    19.6
2014 04 30    13 27 55.8 -34 19 01  36.8452 37.7683   156.1     0.6    19.6
2014 05 01    13 27 49.9 -34 18 32  36.8457 37.7672   155.8     0.6    19.6
2014 05 02    13 27 44.1 -34 18 02  36.8464 37.7662   155.6     0.6    19.6
2014 05 03    13 27 38.3 -34 17 32  36.8474 37.7652   155.2     0.6    19.6
2014 05 04    13 27 32.6 -34 17 01  36.8487 37.7641   154.9     0.6    19.6
2014 05 05    13 27 26.9 -34 16 30  36.8503 37.7631   154.5     0.7    19.6
2014 05 06    13 27 21.2 -34 15 58  36.8521 37.7621   154.1     0.7    19.6
2014 05 07    13 27 15.6 -34 15 26  36.8542 37.7610   153.7     0.7    19.6
2014 05 08    13 27 10.0 -34 14 54  36.8565 37.7600   153.2     0.7    19.6
2014 05 09    13 27 04.5 -34 14 21  36.8591 37.7590   152.7     0.7    19.6
2014 05 10    13 26 59.1 -34 13 47  36.8620 37.7579   152.2     0.7    19.6
2014 05 11    13 26 53.7 -34 13 13  36.8652 37.7569   151.6     0.7    19.6
2014 05 12    13 26 48.3 -34 12 39  36.8686 37.7559   151.1     0.7    19.6
2014 05 13    13 26 43.0 -34 12 05  36.8722 37.7548   150.5     0.8    19.6
2014 05 14    13 26 37.8 -34 11 30  36.8761 37.7538   149.9     0.8    19.6
2014 05 15    13 26 32.6 -34 10 55  36.8803 37.7528   149.3     0.8    19.7


__________________


L

Posts: 131287
Date:
Kuiper Belt Object 2010 EK139
Permalink  
 


Kuiper Belt Object 2010 EK139 is at Opposition (36.848 AU) on the 24th April, 2014



__________________


L

Posts: 131287
Date:
RE: Asteroid 2010 EK139
Permalink  
 


Ephemeris

Date    TT    R. A. (2000) Decl.     Delta      r     Elong.  Phase     Mag
2014 04 23    13 28 37.7 -34 22 09  36.8496 37.7755   156.8     0.6    19.6
2014 04 24    13 28 31.6 -34 21 44  36.8482 37.7745   156.8     0.6    19.6
2014 04 25    13 28 25.6 -34 21 18  36.8470 37.7734   156.8     0.6    19.6
2014 04 26    13 28 19.6 -34 20 52  36.8461 37.7724   156.7     0.6    19.6
2014 04 27    13 28 13.6 -34 20 25  36.8455 37.7714   156.6     0.6    19.6
2014 04 28    13 28 07.6 -34 19 57  36.8451 37.7703   156.5     0.6    19.6
2014 04 29    13 28 01.7 -34 19 29  36.8450 37.7693   156.3     0.6    19.6
2014 04 30    13 27 55.8 -34 19 01  36.8452 37.7683   156.1     0.6    19.6
2014 05 01    13 27 49.9 -34 18 32  36.8457 37.7672   155.8     0.6    19.6
2014 05 02    13 27 44.1 -34 18 02  36.8464 37.7662   155.6     0.6    19.6
2014 05 03    13 27 38.3 -34 17 32  36.8474 37.7652   155.2     0.6    19.6
2014 05 04    13 27 32.6 -34 17 01  36.8487 37.7641   154.9     0.6    19.6
2014 05 05    13 27 26.9 -34 16 30  36.8503 37.7631   154.5     0.7    19.6
2014 05 06    13 27 21.2 -34 15 58  36.8521 37.7621   154.1     0.7    19.6
2014 05 07    13 27 15.6 -34 15 26  36.8542 37.7610   153.7     0.7    19.6
2014 05 08    13 27 10.0 -34 14 54  36.8565 37.7600   153.2     0.7    19.6
2014 05 09    13 27 04.5 -34 14 21  36.8591 37.7590   152.7     0.7    19.6
2014 05 10    13 26 59.1 -34 13 47  36.8620 37.7579   152.2     0.7    19.6
2014 05 11    13 26 53.7 -34 13 13  36.8652 37.7569   151.6     0.7    19.6
2014 05 12    13 26 48.3 -34 12 39  36.8686 37.7559   151.1     0.7    19.6
2014 05 13    13 26 43.0 -34 12 05  36.8722 37.7548   150.5     0.8    19.6
2014 05 14    13 26 37.8 -34 11 30  36.8761 37.7538   149.9     0.8    19.6
2014 05 15    13 26 32.6 -34 10 55  36.8803 37.7528   149.3     0.8    19.7
2014 05 16    13 26 27.5 -34 10 19  36.8847 37.7517   148.7     0.8    19.7
2014 05 17    13 26 22.5 -34 09 44  36.8894 37.7507   148.0     0.8    19.7
2014 05 18    13 26 17.5 -34 09 07  36.8943 37.7497   147.3     0.8    19.7
2014 05 19    13 26 12.6 -34 08 31  36.8994 37.7486   146.7     0.8    19.7
2014 05 20    13 26 07.8 -34 07 54  36.9048 37.7476   146.0     0.9    19.7
2014 05 21    13 26 03.1 -34 07 18  36.9105 37.7466   145.3     0.9    19.7
2014 05 22    13 25 58.4 -34 06 40  36.9164 37.7455   144.6     0.9    19.7
2014 05 23    13 25 53.8 -34 06 03  36.9225 37.7445   143.8     0.9    19.7
2014 05 24    13 25 49.2 -34 05 26  36.9289 37.7435   143.1     0.9    19.7
2014 05 25    13 25 44.8 -34 04 48  36.9355 37.7425   142.4     0.9    19.7
2014 05 26    13 25 40.4 -34 04 10  36.9423 37.7414   141.6     1.0    19.7
2014 05 27    13 25 36.1 -34 03 32  36.9494 37.7404   140.8     1.0    19.7
2014 05 28    13 25 31.9 -34 02 54  36.9567 37.7394   140.1     1.0    19.7
2014 05 29    13 25 27.8 -34 02 15  36.9642 37.7383   139.3     1.0    19.7
2014 05 30    13 25 23.8 -34 01 37  36.9720 37.7373   138.5     1.0    19.7
2014 05 31    13 25 19.8 -34 00 59  36.9799 37.7363   137.7     1.0    19.7


__________________


L

Posts: 131287
Date:
Permalink  
 

2010 EK139 is a trans-Neptunian object orbiting the Sun in the scattered disc.
Read more



__________________


L

Posts: 131287
Date:
KBO 2010 EK139
Permalink  
 


KBO 2010 EK139 is at Opposition (37.227 AU) on the 23rd April, 2013.

Ephemeris

Date    TT    R. A. (2000) Decl.     Delta      r     Elong.  Phase     Mag
2013 04 22    13 22 24.2 -33 07 39  37.2282 38.1582   157.4     0.6    19.7
2013 04 23    13 22 18.3 -33 07 13  37.2271 38.1571   157.4     0.6    19.7
2013 04 24    13 22 12.4 -33 06 47  37.2262 38.1561   157.3     0.6    19.7
2013 04 25    13 22 06.6 -33 06 20  37.2256 38.1550   157.2     0.6    19.7
2013 04 26    13 22 00.7 -33 05 53  37.2252 38.1540   157.1     0.6    19.7
2013 04 27    13 21 54.9 -33 05 25  37.2251 38.1529   156.9     0.6    19.7
2013 04 28    13 21 49.2 -33 04 56  37.2253 38.1518   156.7     0.6    19.7
2013 04 29    13 21 43.4 -33 04 27  37.2258 38.1508   156.4     0.6    19.7
2013 04 30    13 21 37.7 -33 03 58  37.2265 38.1497   156.1     0.6    19.7


__________________


L

Posts: 131287
Date:
RE: Asteroid 2010 EK139
Permalink  
 


Orbital elements:
2010 EK139
Epoch 2010 July 23.0 TT = JDT 2455400.5 MPC
M 342.29936 (2000.0) P Q
n 0.00170567 Peri. 284.84263 +0.04914832 +0.99192880
a 69.3753659 Node 346.26910 -0.61627661 -0.06197485
e 0.5321772 Incl. 29.50016 -0.78599465 +0.11061816
P 578 H 4.0 G 0.15 U 2

MPEC 2010 - G50


__________________


L

Posts: 131287
Date:
Permalink  
 

Orbital elements:
2010 EK139
Epoch 2010 Mar. 25.0 TT = JDT 2455280.5 MPC
M 0.04068 (2000.0) P Q
n 0.00337448 Peri. 219.30071 -0.83904880 +0.53899375
a 44.0215315 Node 352.16999 -0.24958312 -0.50226240
e 0.0812538 Incl. 32.92361 -0.48343084 -0.67617913
P 292 H 3.9 G 0.15
From 7 observations 2010 Mar. 13-Apr. 8.

MPEC 2010 - G49


__________________
Page 1 of 1  sorted by
Quick Reply

Please log in to post quick replies.



Create your own FREE Forum
Report Abuse
Powered by ActiveBoard